| time (UTC) | temp F | wind direction | speed MPH | gust MPH | rain 1hr in | rain 24hr in | rain mn in | humidity % | barometer mb |
| 20260509111534 | 70 | 173 | 2.0 | 9.0 | 0.00 | 0.00 | 0.00 | 53 | 1017.5 |
| 20260509111034 | 68 | 92 | 4.0 | 12.0 | 0.00 | 0.00 | 0.00 | 53 | 1017.4 |
| 20260509110533 | 67 | 105 | 2.0 | 12.0 | 0.00 | 0.00 | 0.00 | 55 | 1017.7 |
| 20260509110031 | 68 | 91 | 2.0 | 7.0 | 0.00 | 0.00 | 0.00 | 54 | 1017.6 |
| 20260509105533 | 68 | 135 | 4.0 | 9.0 | 0.00 | 0.00 | 0.00 | 54 | 1017.6 |
| 20260509105031 | 69 | 221 | 4.0 | 9.0 | 0.00 | 0.00 | 0.00 | 52 | 1017.7 |
| 20260509104531 | 70 | 118 | 2.0 | 9.0 | 0.00 | 0.00 | 0.00 | 53 | 1017.7 |
| 20260509104029 | 69 | 156 | 4.0 | 14.0 | 0.00 | 0.00 | 0.00 | 52 | 1017.6 |
| 20260509103528 | 68 | 74 | 4.0 | 14.0 | 0.00 | 0.00 | 0.00 | 54 | 1017.8 |
| 20260509103022 | 68 | 125 | 4.0 | 14.0 | 0.00 | 0.00 | 0.00 | 52 | 1017.8 |
| 20260509102017 | 69 | 80 | 4.0 | 14.0 | 0.00 | 0.00 | 0.00 | 55 | 1017.9 |
| 20260509101518 | 69 | 120 | 4.0 | 9.0 | 0.00 | 0.00 | 0.00 | 53 | 1017.9 |
| 20260509101028 | 68 | 212 | 4.0 | 12.0 | 0.00 | 0.00 | 0.00 | 53 | 1017.9 |
| 20260509095512 | 68 | 90 | 4.0 | 11.0 | 0.00 | 0.00 | 0.00 | 53 | 1017.9 |
| 20260509095013 | 67 | 122 | 4.0 | 9.0 | 0.00 | 0.00 | 0.00 | 56 | 1017.9 |
| 20260509094509 | 67 | 145 | 4.0 | 9.0 | 0.00 | 0.00 | 0.00 | 53 | 1018.1 |
| 20260509094009 | 68 | 69 | 4.0 | 9.0 | 0.00 | 0.00 | 0.00 | 54 | 1018.1 |
| 20260509093509 | 67 | 174 | 4.0 | 9.0 | 0.00 | 0.00 | 0.00 | 53 | 1018.0 |
| 20260509093006 | 67 | 124 | 4.0 | 12.0 | 0.00 | 0.00 | 0.00 | 54 | 1018.1 |
| 20260509092018 | 66 | 128 | 4.0 | 12.0 | 0.00 | 0.00 | 0.00 | 54 | 1018.0 |
| 20260509091016 | 66 | 97 | 4.0 | 11.0 | 0.00 | 0.00 | 0.00 | 54 | 1018.1 |
| 20260509090504 | 66 | 94 | 4.0 | 11.0 | 0.00 | 0.00 | 0.00 | 54 | 1018.2 |
| 20260509090005 | 66 | 176 | 4.0 | 9.0 | 0.00 | 0.00 | 0.00 | 55 | 1018.2 |
| 20260509085504 | 66 | 95 | 4.0 | 12.0 | 0.00 | 0.00 | 0.00 | 59 | 1018.1 |
| 20260509085006 | 65 | 131 | 4.0 | 12.0 | 0.00 | 0.00 | 0.00 | 58 | 1018.2 |
| 20260509084508 | 66 | 85 | 4.0 | 9.0 | 0.00 | 0.00 | 0.00 | 61 | 1018.1 |
| 20260509084007 | 65 | 133 | 4.0 | 11.0 | 0.00 | 0.00 | 0.00 | 62 | 1018.2 |
| 20260509083509 | 65 | 120 | 4.0 | 11.0 | 0.00 | 0.00 | 0.00 | 63 | 1018.2 |
| 20260509083005 | 65 | 125 | 2.0 | 5.0 | 0.00 | 0.00 | 0.00 | 63 | 1018.2 |
| 20260509082004 | 64 | 153 | 2.0 | 5.0 | 0.00 | 0.00 | 0.00 | 67 | 1018.4 |
| 20260509081504 | 63 | 160 | 2.0 | 5.0 | 0.00 | 0.00 | 0.00 | 68 | 1018.4 |
| 20260509081002 | 63 | 162 | 2.0 | 5.0 | 0.00 | 0.00 | 0.00 | 67 | 1018.5 |
| 20260509080502 | 63 | 118 | 2.0 | 5.0 | 0.00 | 0.00 | 0.00 | 67 | 1018.5 |
| 20260509080006 | 62 | 149 | 2.0 | 4.0 | 0.00 | 0.00 | 0.00 | 70 | 1018.9 |
| 20260509075506 | 62 | 149 | 2.0 | 5.0 | 0.00 | 0.00 | 0.00 | 70 | 1018.6 |
| 20260509074502 | 60 | 149 | 2.0 | 7.0 | 0.00 | 0.00 | 0.00 | 71 | 1018.5 |
| 20260509073503 | 59 | 140 | 4.0 | 7.0 | 0.00 | 0.00 | 0.00 | 73 | 1018.6 |
| 20260509073005 | 59 | 156 | 2.0 | 7.0 | 0.00 | 0.00 | 0.00 | 74 | 1018.6 |
| 20260509072502 | 58 | 126 | 2.0 | 5.0 | 0.00 | 0.00 | 0.00 | 75 | 1018.6 |
| 20260509072003 | 58 | 114 | 2.0 | 5.0 | 0.00 | 0.00 | 0.00 | 78 | 1018.6 |
| 20260509071504 | 57 | 114 | 2.0 | 7.0 | 0.00 | 0.00 | 0.00 | 79 | 1018.6 |
| 20260509071003 | 57 | 114 | 2.0 | 7.0 | 0.00 | 0.00 | 0.00 | 79 | 1018.6 |
| 20260509070504 | 57 | 113 | 2.0 | 4.0 | 0.00 | 0.00 | 0.00 | 80 | 1018.7 |
| 20260509065003 | 56 | 106 | 2.0 | 5.0 | 0.00 | 0.00 | 0.00 | 81 | 1018.7 |
| 20260509064505 | 55 | 118 | 2.0 | 5.0 | 0.00 | 0.00 | 0.00 | 83 | 1018.6 |
| 20260509064005 | 55 | 122 | 2.0 | 7.0 | 0.00 | 0.00 | 0.00 | 84 | 1018.5 |
| 20260509063505 | 54 | 124 | 2.0 | 7.0 | 0.00 | 0.00 | 0.00 | 85 | 1018.6 |
| 20260509062501 | 53 | 130 | 2.0 | 5.0 | 0.00 | 0.00 | 0.00 | 88 | 1018.6 |
| 20260509061959 | 52 | 130 | 0.0 | 5.0 | 0.00 | 0.00 | 0.00 | 90 | 1018.5 |
| 20260509061452 | 51 | 112 | 0.0 | 0.0 | 0.00 | 0.00 | 0.00 | 91 | 1018.6 |
| 20260509060449 | 50 | 112 | 0.0 | 0.0 | 0.00 | 0.00 | 0.00 | 92 | 1018.6 |
| 20260509055939 | 49 | 112 | 0.0 | 0.0 | 0.00 | 0.00 | 0.00 | 93 | 1018.5 |
| 20260509054935 | 48 | 110 | 0.0 | 0.0 | 0.00 | 0.00 | 0.00 | 93 | 1018.6 |
| 20260509054433 | 48 | 110 | 0.0 | 0.0 | 0.00 | 0.00 | 0.00 | 93 | 1018.5 |
| 20260509053932 | 47 | 110 | 0.0 | 0.0 | 0.00 | 0.00 | 0.00 | 93 | 1018.5 |
| 20260509053429 | 47 | 110 | 0.0 | 0.0 | 0.00 | 0.00 | 0.00 | 93 | 1018.3 |
| 20260509052414 | 47 | 107 | 0.0 | 0.0 | 0.00 | 0.00 | 0.00 | 93 | 1018.2 |
| 20260509051921 | 46 | 107 | 0.0 | 0.0 | 0.00 | 0.00 | 0.00 | 93 | 1018.2 |
| 20260509051404 | 46 | 106 | 0.0 | 0.0 | 0.00 | 0.00 | 0.00 | 93 | 1018.2 |
| 20260509050403 | 46 | 106 | 0.0 | 0.0 | 0.00 | 0.00 | 0.00 | 93 | 1018.1 |
| 20260509045904 | 46 | 106 | 0.0 | 0.0 | 0.00 | 0.00 | 0.00 | 93 | 1018.1 |
| 20260509045406 | 46 | 106 | 0.0 | 0.0 | 0.00 | 0.00 | 0.00 | 93 | 1018.1 |
| 20260509044904 | 46 | 106 | 0.0 | 0.0 | 0.00 | 0.00 | 0.00 | 93 | 1018.1 |
| 20260509044404 | 46 | 106 | 0.0 | 0.0 | 0.00 | 0.00 | 0.00 | 93 | 1018.1 |
| 20260509043905 | 46 | 106 | 0.0 | 0.0 | 0.00 | 0.00 | 0.00 | 93 | 1018.1 |
| 20260509043401 | 46 | 106 | 0.0 | 0.0 | 0.00 | 0.00 | 0.00 | 93 | 1018.2 |
| 20260509042847 | 46 | 106 | 0.0 | 0.0 | 0.00 | 0.00 | 0.00 | 93 | 1018.2 |
| 20260509042339 | 46 | 106 | 0.0 | 0.0 | 0.00 | 0.00 | 0.00 | 92 | 1018.1 |
| 20260509041835 | 46 | 106 | 0.0 | 0.0 | 0.00 | 0.00 | 0.00 | 92 | 1018.1 |
| 20260509041332 | 46 | 106 | 0.0 | 0.0 | 0.00 | 0.00 | 0.00 | 92 | 1018.1 |
| 20260509040834 | 46 | 106 | 0.0 | 0.0 | 0.00 | 0.00 | 0.00 | 92 | 1018.2 |
| 20260509040331 | 46 | 106 | 0.0 | 0.0 | 0.00 | 0.00 | 0.00 | 92 | 1018.2 |
| 20260509035832 | 46 | 106 | 0.0 | 0.0 | 0.00 | 0.00 | 0.00 | 92 | 1018.1 |
| 20260509035332 | 46 | 106 | 0.0 | 0.0 | 0.00 | 0.00 | 0.00 | 92 | 1018.2 |
| 20260509034331 | 46 | 106 | 0.0 | 0.0 | 0.00 | 0.00 | 0.00 | 92 | 1018.1 |
| 20260509033836 | 46 | 106 | 0.0 | 0.0 | 0.00 | 0.00 | 0.00 | 92 | 1018.0 |
| 20260509033329 | 46 | 106 | 0.0 | 0.0 | 0.00 | 0.00 | 0.00 | 92 | 1018.1 |
| 20260509032830 | 46 | 106 | 0.0 | 0.0 | 0.00 | 0.00 | 0.00 | 92 | 1018.1 |
| 20260509032332 | 46 | 106 | 0.0 | 0.0 | 0.00 | 0.00 | 0.00 | 92 | 1018.1 |
| 20260509031831 | 46 | 106 | 0.0 | 0.0 | 0.00 | 0.00 | 0.00 | 92 | 1018.2 |
| 20260509030818 | 46 | 106 | 0.0 | 0.0 | 0.00 | 0.00 | 0.00 | 91 | 1018.1 |
| 20260509030311 | 46 | 106 | 0.0 | 0.0 | 0.00 | 0.00 | 0.00 | 91 | 1018.1 |
| 20260509025805 | 46 | 106 | 0.0 | 0.0 | 0.00 | 0.00 | 0.00 | 91 | 1018.1 |
| 20260509025307 | 46 | 106 | 0.0 | 0.0 | 0.00 | 0.00 | 0.00 | 91 | 1018.2 |
| 20260509024803 | 46 | 106 | 0.0 | 0.0 | 0.00 | 0.00 | 0.00 | 91 | 1018.2 |
| 20260509024302 | 46 | 106 | 0.0 | 0.0 | 0.00 | 0.00 | 0.00 | 91 | 1018.3 |
| 20260509023303 | 46 | 106 | 0.0 | 0.0 | 0.00 | 0.00 | 0.00 | 91 | 1018.3 |
| 20260509022804 | 46 | 106 | 0.0 | 0.0 | 0.00 | 0.00 | 0.00 | 91 | 1018.2 |
| 20260509022306 | 46 | 106 | 0.0 | 0.0 | 0.00 | 0.00 | 0.00 | 90 | 1018.3 |
| 20260509021804 | 47 | 106 | 0.0 | 0.0 | 0.00 | 0.00 | 0.00 | 90 | 1018.2 |
| 20260509021303 | 47 | 106 | 0.0 | 0.0 | 0.00 | 0.00 | 0.00 | 90 | 1018.2 |
| 20260509020304 | 47 | 106 | 0.0 | 0.0 | 0.00 | 0.00 | 0.00 | 90 | 1018.2 |
| 20260509015302 | 47 | 106 | 0.0 | 0.0 | 0.00 | 0.00 | 0.00 | 90 | 1018.3 |
| 20260509014801 | 47 | 106 | 0.0 | 0.0 | 0.00 | 0.00 | 0.00 | 90 | 1018.3 |
| 20260509014302 | 47 | 106 | 0.0 | 0.0 | 0.00 | 0.00 | 0.00 | 90 | 1018.5 |
| 20260509013804 | 47 | 106 | 0.0 | 0.0 | 0.00 | 0.00 | 0.00 | 89 | 1018.5 |
| 20260509013304 | 47 | 106 | 0.0 | 0.0 | 0.00 | 0.00 | 0.00 | 89 | 1018.5 |
| 20260509012732 | 47 | 106 | 0.0 | 0.0 | 0.00 | 0.00 | 0.00 | 89 | 1018.5 |
| 20260509012232 | 47 | 106 | 0.0 | 0.0 | 0.00 | 0.00 | 0.00 | 89 | 1018.5 |
| 20260509011733 | 47 | 106 | 0.0 | 0.0 | 0.00 | 0.00 | 0.00 | 89 | 1018.5 |
| 20260509011230 | 47 | 106 | 0.0 | 0.0 | 0.00 | 0.00 | 0.00 | 88 | 1018.5 |
| 20260509010730 | 47 | 106 | 0.0 | 0.0 | 0.00 | 0.00 | 0.00 | 88 | 1018.5 |
| 20260509010235 | 47 | 106 | 0.0 | 0.0 | 0.00 | 0.00 | 0.00 | 88 | 1018.5 |
| 20260509005229 | 48 | 106 | 0.0 | 0.0 | 0.00 | 0.00 | 0.00 | 87 | 1018.5 |
| 20260509004729 | 48 | 106 | 0.0 | 0.0 | 0.00 | 0.00 | 0.00 | 87 | 1018.5 |
| 20260509004234 | 48 | 106 | 0.0 | 0.0 | 0.00 | 0.00 | 0.00 | 87 | 1018.5 |
| 20260509003231 | 48 | 106 | 0.0 | 0.0 | 0.00 | 0.00 | 0.00 | 87 | 1018.5 |
| 20260509002730 | 48 | 106 | 0.0 | 0.0 | 0.00 | 0.00 | 0.00 | 86 | 1018.5 |
| 20260509002229 | 49 | 106 | 0.0 | 0.0 | 0.00 | 0.00 | 0.00 | 86 | 1018.5 |
| 20260509001730 | 49 | 106 | 0.0 | 0.0 | 0.00 | 0.00 | 0.00 | 86 | 1018.4 |
| 20260509001225 | 49 | 106 | 0.0 | 0.0 | 0.00 | 0.00 | 0.00 | 86 | 1018.5 |
| 20260509000223 | 49 | 106 | 0.0 | 0.0 | 0.00 | 0.00 | 0.00 | 85 | 1018.5 |
| 20260508235719 | 49 | 106 | 0.0 | 0.0 | 0.00 | 0.00 | 0.00 | 85 | 1018.5 |
| 20260508235218 | 50 | 106 | 0.0 | 0.0 | 0.00 | 0.00 | 0.00 | 85 | 1018.4 |
| 20260508234715 | 50 | 106 | 0.0 | 0.0 | 0.00 | 0.00 | 0.00 | 85 | 1018.5 |
| 20260508234214 | 50 | 106 | 0.0 | 0.0 | 0.00 | 0.00 | 0.00 | 84 | 1018.6 |
| 20260508233702 | 50 | 106 | 0.0 | 0.0 | 0.00 | 0.00 | 0.00 | 84 | 1018.6 |
| 20260508233202 | 50 | 106 | 0.0 | 0.0 | 0.00 | 0.00 | 0.00 | 84 | 1018.6 |
| 20260508232157 | 50 | 106 | 0.0 | 0.0 | 0.00 | 0.00 | 0.00 | 83 | 1018.6 |
| 20260508231658 | 51 | 106 | 0.0 | 0.0 | 0.00 | 0.00 | 0.00 | 82 | 1018.6 |
| 20260508231159 | 51 | 106 | 0.0 | 0.0 | 0.00 | 0.00 | 0.00 | 82 | 1018.6 |
| 20260508230651 | 51 | 106 | 0.0 | 0.0 | 0.00 | 0.00 | 0.00 | 82 | 1018.6 |
| 20260508230153 | 51 | 106 | 0.0 | 0.0 | 0.00 | 0.00 | 0.00 | 82 | 1018.5 |
| 20260508225645 | 51 | 106 | 0.0 | 0.0 | 0.00 | 0.00 | 0.00 | 81 | 1018.5 |
| 20260508225145 | 51 | 106 | 0.0 | 0.0 | 0.00 | 0.00 | 0.00 | 81 | 1018.5 |
| 20260508224639 | 52 | 106 | 0.0 | 0.0 | 0.00 | 0.00 | 0.00 | 81 | 1018.6 |
| 20260508224141 | 52 | 106 | 0.0 | 0.0 | 0.00 | 0.00 | 0.00 | 81 | 1018.5 |
| 20260508223638 | 52 | 106 | 0.0 | 0.0 | 0.00 | 0.00 | 0.00 | 81 | 1018.5 |
| 20260508223132 | 52 | 106 | 0.0 | 0.0 | 0.00 | 0.00 | 0.00 | 81 | 1018.5 |
| 20260508222132 | 52 | 106 | 0.0 | 0.0 | 0.00 | 0.00 | 0.00 | 80 | 1018.4 |
| 20260508221631 | 53 | 106 | 0.0 | 0.0 | 0.00 | 0.00 | 0.00 | 80 | 1018.4 |
| 20260508220619 | 53 | 106 | 0.0 | 0.0 | 0.00 | 0.00 | 0.00 | 79 | 1018.3 |
| 20260508220117 | 53 | 106 | 0.0 | 0.0 | 0.00 | 0.00 | 0.00 | 79 | 1018.3 |
| 20260508215606 | 53 | 106 | 0.0 | 0.0 | 0.00 | 0.00 | 0.00 | 79 | 1018.3 |
| 20260508215108 | 53 | 106 | 0.0 | 0.0 | 0.00 | 0.00 | 0.00 | 78 | 1018.3 |
| 20260508214605 | 53 | 106 | 0.0 | 0.0 | 0.00 | 0.00 | 0.00 | 78 | 1018.3 |
| 20260508214104 | 54 | 106 | 0.0 | 0.0 | 0.00 | 0.00 | 0.00 | 78 | 1018.3 |
| 20260508213604 | 54 | 106 | 0.0 | 0.0 | 0.00 | 0.00 | 0.00 | 77 | 1018.3 |
| 20260508213102 | 54 | 106 | 0.0 | 0.0 | 0.00 | 0.00 | 0.00 | 77 | 1018.3 |
| 20260508212607 | 54 | 106 | 0.0 | 0.0 | 0.00 | 0.00 | 0.00 | 77 | 1018.3 |
| 20260508211606 | 55 | 106 | 0.0 | 0.0 | 0.00 | 0.00 | 0.00 | 75 | 1018.2 |
| 20260508211103 | 55 | 106 | 0.0 | 0.0 | 0.00 | 0.00 | 0.00 | 75 | 1018.2 |
| 20260508210603 | 55 | 106 | 0.0 | 0.0 | 0.00 | 0.00 | 0.00 | 74 | 1018.1 |
| 20260508210105 | 55 | 106 | 0.0 | 0.0 | 0.00 | 0.00 | 0.00 | 74 | 1018.1 |
| 20260508205102 | 56 | 106 | 0.0 | 0.0 | 0.00 | 0.00 | 0.00 | 73 | 1018.0 |
| 20260508204103 | 56 | 106 | 0.0 | 0.0 | 0.00 | 0.00 | 0.00 | 72 | 1018.0 |
| 20260508203607 | 56 | 106 | 0.0 | 0.0 | 0.00 | 0.00 | 0.00 | 72 | 1017.9 |
| 20260508203102 | 57 | 106 | 0.0 | 0.0 | 0.00 | 0.00 | 0.00 | 71 | 1017.9 |
| 20260508202602 | 57 | 106 | 0.0 | 0.0 | 0.00 | 0.00 | 0.00 | 70 | 1017.9 |
| 20260508201603 | 57 | 106 | 0.0 | 0.0 | 0.00 | 0.00 | 0.00 | 70 | 1017.9 |
| 20260508201101 | 58 | 106 | 0.0 | 0.0 | 0.00 | 0.00 | 0.00 | 70 | 1017.8 |
| 20260508200605 | 58 | 106 | 0.0 | 0.0 | 0.00 | 0.00 | 0.00 | 69 | 1017.7 |
| 20260508195101 | 58 | 106 | 0.0 | 4.0 | 0.00 | 0.00 | 0.00 | 69 | 1017.7 |
| 20260508194607 | 59 | 106 | 2.0 | 7.0 | 0.00 | 0.00 | 0.00 | 68 | 1017.7 |
| 20260508194105 | 59 | 105 | 2.0 | 7.0 | 0.00 | 0.00 | 0.00 | 68 | 1017.7 |
| 20260508193101 | 59 | 100 | 0.0 | 4.0 | 0.00 | 0.00 | 0.00 | 68 | 1017.6 |
| 20260508192558 | 60 | 100 | 0.0 | 5.0 | 0.00 | 0.00 | 0.00 | 68 | 1017.6 |
| 20260508191558 | 60 | 96 | 0.0 | 0.0 | 0.00 | 0.00 | 0.00 | 67 | 1017.4 |
| 20260508191054 | 60 | 96 | 0.0 | 2.0 | 0.00 | 0.00 | 0.00 | 66 | 1017.3 |
| 20260508190554 | 61 | 96 | 0.0 | 2.0 | 0.00 | 0.00 | 0.00 | 66 | 1017.3 |
| 20260508185552 | 62 | 96 | 0.0 | 2.0 | 0.00 | 0.00 | 0.00 | 64 | 1017.2 |
| 20260508185048 | 62 | 96 | 0.0 | 2.0 | 0.00 | 0.00 | 0.00 | 63 | 1017.1 |
| 20260508184548 | 62 | 96 | 0.0 | 2.0 | 0.00 | 0.00 | 0.00 | 62 | 1017.1 |
| 20260508184046 | 62 | 96 | 0.0 | 2.0 | 0.00 | 0.00 | 0.00 | 61 | 1017.0 |
| 20260508183035 | 63 | 96 | 0.0 | 2.0 | 0.00 | 0.00 | 0.00 | 59 | 1016.8 |
| 20260508182030 | 64 | 96 | 2.0 | 7.0 | 0.00 | 0.00 | 0.00 | 58 | 1016.9 |
| 20260508181535 | 64 | 105 | 2.0 | 7.0 | 0.00 | 0.00 | 0.00 | 57 | 1016.8 |
| 20260508181031 | 64 | 96 | 2.0 | 7.0 | 0.00 | 0.00 | 0.00 | 56 | 1016.7 |
| 20260508180535 | 65 | 105 | 2.0 | 4.0 | 0.00 | 0.00 | 0.00 | 55 | 1016.8 |
| 20260508180030 | 65 | 105 | 2.0 | 5.0 | 0.00 | 0.00 | 0.00 | 55 | 1016.7 |
| 20260508175532 | 65 | 118 | 2.0 | 5.0 | 0.00 | 0.00 | 0.00 | 54 | 1016.7 |
| 20260508175031 | 65 | 113 | 2.0 | 5.0 | 0.00 | 0.00 | 0.00 | 54 | 1016.7 |
| 20260508174533 | 65 | 113 | 2.0 | 5.0 | 0.00 | 0.00 | 0.00 | 54 | 1016.6 |
| 20260508174030 | 65 | 112 | 2.0 | 4.0 | 0.00 | 0.00 | 0.00 | 53 | 1016.7 |
| 20260508173532 | 65 | 112 | 2.0 | 4.0 | 0.00 | 0.00 | 0.00 | 52 | 1016.6 |
| 20260508173032 | 65 | 116 | 2.0 | 5.0 | 0.00 | 0.00 | 0.00 | 52 | 1016.6 |
| 20260508172534 | 65 | 116 | 2.0 | 5.0 | 0.00 | 0.00 | 0.00 | 51 | 1016.6 |
| 20260508172031 | 65 | 112 | 2.0 | 5.0 | 0.00 | 0.00 | 0.00 | 51 | 1016.6 |
| 20260508171530 | 66 | 118 | 2.0 | 5.0 | 0.00 | 0.00 | 0.00 | 50 | 1016.5 |
| 20260508171031 | 66 | 118 | 2.0 | 7.0 | 0.00 | 0.00 | 0.00 | 50 | 1016.5 |
| 20260508170534 | 67 | 151 | 2.0 | 7.0 | 0.00 | 0.00 | 0.00 | 49 | 1016.5 |
| 20260508170030 | 67 | 112 | 2.0 | 7.0 | 0.00 | 0.00 | 0.00 | 49 | 1016.4 |
| 20260508165532 | 67 | 135 | 4.0 | 9.0 | 0.00 | 0.00 | 0.00 | 49 | 1016.4 |
| 20260508165032 | 68 | 108 | 4.0 | 14.0 | 0.00 | 0.00 | 0.00 | 49 | 1016.3 |
| 20260508164535 | 68 | 208 | 4.0 | 14.0 | 0.00 | 0.00 | 0.00 | 49 | 1016.2 |
| 20260508162530 | 67 | 149 | 2.0 | 5.0 | 0.00 | 0.00 | 0.00 | 50 | 1016.2 |
| 20260508161527 | 67 | 187 | 2.0 | 9.0 | 0.00 | 0.00 | 0.00 | 51 | 1016.2 |
| 20260508160529 | 68 | 201 | 2.0 | 7.0 | 0.00 | 0.00 | 0.00 | 49 | 1016.2 |
| 20260508155523 | 68 | 123 | 2.0 | 9.0 | 0.00 | 0.00 | 0.00 | 49 | 1016.3 |
| 20260508155023 | 68 | 214 | 2.0 | 9.0 | 0.00 | 0.00 | 0.00 | 49 | 1016.2 |
| 20260508153520 | 66 | 148 | 4.0 | 9.0 | 0.00 | 0.00 | 0.00 | 48 | 1016.3 |
| 20260508151516 | 67 | 196 | 4.0 | 12.0 | 0.00 | 0.00 | 0.00 | 50 | 1016.5 |
| 20260508151017 | 67 | 163 | 4.0 | 9.0 | 0.00 | 0.00 | 0.00 | 52 | 1016.4 |
| 20260508150516 | 67 | 210 | 4.0 | 9.0 | 0.00 | 0.00 | 0.00 | 51 | 1016.5 |
| 20260508150013 | 67 | 164 | 4.0 | 9.0 | 0.00 | 0.00 | 0.00 | 51 | 1016.5 |
| 20260508145011 | 67 | 185 | 4.0 | 11.0 | 0.00 | 0.00 | 0.00 | 53 | 1016.5 |
| 20260508144514 | 66 | 193 | 2.0 | 11.0 | 0.00 | 0.00 | 0.00 | 53 | 1016.5 |
| 20260508144010 | 66 | 218 | 2.0 | 7.0 | 0.00 | 0.00 | 0.00 | 53 | 1016.6 |
| 20260508143507 | 66 | 120 | 2.0 | 5.0 | 0.00 | 0.00 | 0.00 | 51 | 1016.7 |
| 20260508143004 | 67 | 132 | 0.0 | 5.0 | 0.00 | 0.00 | 0.00 | 51 | 1016.7 |
| 20260508142503 | 67 | 132 | 2.0 | 5.0 | 0.00 | 0.00 | 0.00 | 49 | 1016.7 |
| 20260508142002 | 68 | 133 | 4.0 | 9.0 | 0.00 | 0.00 | 0.00 | 50 | 1016.6 |
| 20260508141501 | 67 | 141 | 4.0 | 12.0 | 0.00 | 0.00 | 0.00 | 50 | 1016.7 |
| 20260508140953 | 67 | 75 | 4.0 | 14.0 | 0.00 | 0.00 | 0.00 | 52 | 1016.7 |
| 20260508140445 | 67 | 194 | 2.0 | 14.0 | 0.00 | 0.00 | 0.00 | 52 | 1016.7 |
| 20260508134935 | 66 | 90 | 2.0 | 7.0 | 0.00 | 0.00 | 0.00 | 53 | 1016.9 |
| 20260508134435 | 66 | 158 | 2.0 | 7.0 | 0.00 | 0.00 | 0.00 | 52 | 1016.9 |
| 20260508133935 | 66 | 108 | 2.0 | 7.0 | 0.00 | 0.00 | 0.00 | 54 | 1017.0 |
| 20260508133434 | 65 | 95 | 2.0 | 7.0 | 0.00 | 0.00 | 0.00 | 54 | 1017.0 |
| 20260508132428 | 65 | 97 | 5.0 | 12.0 | 0.00 | 0.00 | 0.00 | 52 | 1017.0 |
| 20260508131422 | 65 | 157 | 4.0 | 12.0 | 0.00 | 0.00 | 0.00 | 54 | 1017.0 |
| 20260508130924 | 66 | 180 | 4.0 | 12.0 | 0.00 | 0.00 | 0.00 | 53 | 1017.1 |
| 20260508130421 | 66 | 66 | 4.0 | 12.0 | 0.00 | 0.00 | 0.00 | 52 | 1017.2 |
| 20260508125918 | 66 | 178 | 4.0 | 12.0 | 0.00 | 0.00 | 0.00 | 54 | 1017.0 |
| 20260508125418 | 66 | 210 | 5.0 | 12.0 | 0.00 | 0.00 | 0.00 | 52 | 1017.2 |
| 20260508124918 | 67 | 87 | 5.0 | 12.0 | 0.00 | 0.00 | 0.00 | 52 | 1017.3 |
| 20260508124414 | 66 | 116 | 5.0 | 12.0 | 0.00 | 0.00 | 0.00 | 53 | 1017.2 |
| 20260508123909 | 66 | 170 | 5.0 | 9.0 | 0.00 | 0.00 | 0.00 | 54 | 1017.3 |
| 20260508123410 | 65 | 105 | 4.0 | 9.0 | 0.00 | 0.00 | 0.00 | 56 | 1017.2 |
| 20260508122911 | 65 | 149 | 4.0 | 7.0 | 0.00 | 0.00 | 0.00 | 55 | 1017.4 |
| 20260508122408 | 65 | 183 | 4.0 | 7.0 | 0.00 | 0.00 | 0.00 | 56 | 1017.4 |
| 20260508121910 | 65 | 211 | 4.0 | 9.0 | 0.00 | 0.00 | 0.00 | 55 | 1017.3 |
| 20260508121409 | 65 | 92 | 5.0 | 14.0 | 0.00 | 0.00 | 0.00 | 54 | 1017.3 |
| 20260508120912 | 65 | 80 | 5.0 | 14.0 | 0.00 | 0.00 | 0.00 | 55 | 1017.4 |
| 20260508120408 | 66 | 194 | 4.0 | 11.0 | 0.00 | 0.00 | 0.00 | 52 | 1017.3 |
| 20260508115908 | 66 | 184 | 4.0 | 11.0 | 0.00 | 0.00 | 0.00 | 53 | 1017.2 |
| 20260508115404 | 66 | 205 | 5.0 | 11.0 | 0.00 | 0.00 | 0.00 | 55 | 1017.2 |
| 20260508114902 | 65 | 226 | 4.0 | 11.0 | 0.00 | 0.00 | 0.00 | 56 | 1017.2 |
| 20260508114405 | 65 | 149 | 4.0 | 9.0 | 0.00 | 0.00 | 0.00 | 56 | 1017.3 |
| 20260508113903 | 64 | 58 | 4.0 | 11.0 | 0.00 | 0.00 | 0.00 | 57 | 1017.3 |
| 20260508113400 | 65 | 147 | 4.0 | 11.0 | 0.00 | 0.00 | 0.00 | 56 | 1017.3 |
| 20260508112902 | 65 | 157 | 4.0 | 14.0 | 0.00 | 0.00 | 0.00 | 57 | 1017.3 |
| 20260508112403 | 65 | 62 | 4.0 | 14.0 | 0.00 | 0.00 | 0.00 | 58 | 1017.4 |